CAPE
0 0 0 0 0 0 0 11 10 0 0 0 0 0 0 0 0 0 1 13 61 260 219 80 0 0 18 74 37 17 12 9 2 15 22 26 20 19 38 26 57 140 68 144
0 0 0 0 0 0 0 0 0 0 0 0 0 0 0 0 0 0 3 15 37 149 266 50 0 5 52 39 11 17 7 6 4 2 4 15 16 4 1 16 58 107 137 208
0 0 0 0 0 0 0 0 0 0 0 0 0 0 0 0 0 0 0 0 9 57 291 123 0 0 26 49 8 11 14 6 6 0 3 29 19 13 7 20 25 50 84 172
12 0 0 2 1 1 1 0 0 0 0 0 0 0 0 0 0 0 0 0 0 6 146 286 55 9 16 8 8 35 30 13 4 7 7 15 14 17 7 1 17 35 25 155
6 1 0 1 2 1 0 0 1 0 0 0 0 0 0 0 0 0 0 1 3 0 45 269 174 45 10 21 14 7 22 24 13 19 6 10 7 24 35 15 29 11 2 75
0 0 2 1 0 0 0 1 1 1 0 7 2 0 0 3 1 3 0 0 0 0 0 172 219 128 16 11 25 10 9 19 26 18 7 9 1 19 18 37 30 13 24 44
0 0 0 1 0 0 1 8 11 10 2 0 0 3 0 0 0 0 0 0 0 0 0 113 248 169 31 11 29 8 5 7 18 18 18 13 10 9 11 11 2 0 1 30
4 0 0 3 5 0 2 3 3 7 11 2 4 0 0 3 0 0 0 0 0 0 1 92 236 254 78 19 27 16 0 4 9 21 14 16 12 25 14 7 0 0 0 21
3 0 0 0 6 0 3 8 0 1 21 18 12 2 1 0 0 0 0 0 0 0 0 63 178 311 184 48 36 29 0 1 3 15 17 14 17 15 13 17 11 0 4 55
1 5 0 3 4 3 0 1 5 16 12 17 17 46 26 0 1 7 0 7 1 0 0 59 198 343 303 119 37 27 1 2 5 5 20 21 20 34 16 14 23 13 2 82
0 19 0 13 18 18 4 10 23 12 11 15 32 27 23 0 13 31 31 11 5 0 17 71 225 343 411 302 113 44 7 0 23 23 4 17 15 34 32 26 63 31 38 43
0 2 6 1 3 28 18 4 26 33 10 35 50 15 0 0 0 0 0 29 41 5 1 160 301 397 460 438 310 118 49 8 14 51 52 97 97 96 101 168 154 270 106 46
30 2 5 5 4 8 31 33 24 29 41 20 76 18 0 0 0 0 4 26 39 9 1 58 313 416 501 516 496 320 167 74 21 22 74 249 362 383 433 443 289 301 305 216
2 69 15 0 14 6 15 23 8 7 21 50 51 60 1 4 0 0 0 2 1 14 9 17 121 251 456 493 500 499 395 279 114 37 80 156 265 252 327 289 288 262 267 213
0 46 67 53 78 67 23 19 11 17 8 9 26 13 8 3 0 0 1 0 6 17 5 34 34 56 108 252 463 475 446 412 311 162 86 172 294 248 183 271 248 223 213 196
9 4 20 25 34 55 83 82 96 69 61 45 46 48 46 17 0 0 0 4 0 1 11 5 6 2 4 7 114 279 433 425 370 335 380 174 240 205 249 233 257 253 257 210
22 6 13 10 0 0 1 3 18 13 47 62 62 78 17 0 0 0 0 0 4 5 0 0 0 1 9 5 2 26 171 404 406 433 352 372 382 278 286 258 152 194 221 221
13 22 7 15 4 4 2 0 27 52 119 99 52 0 0 0 0 0 18 0 0 0 0 0 0 0 10 9 2 0 2 63 370 380 421 360 455 423 349 250 183 196 214 236
14 17 45 16 15 0 0 0 32 139 116 32 4 0 0 0 0 86 57 1 0 0 0 0 0 0 1 3 2 0 0 0 48 347 454 399 433 284 341 372 385 336 307 279
24 8 69 48 7 8 4 18 2 77 110 5 0 2 0 0 3 142 28 0 0 0 0 0 0 0 0 2 0 0 10 0 0 23 161 419 401 334 320 420 500 478 434 357
49 46 23 29 28 11 27 12 0 20 92 24 5 20 12 10 62 8 0 0 0 0 0 0 0 0 0 0 0 1 1 3 2 104 116 128 293 409 387 496 312 212 20 0
25 42 45 54 27 18 54 6 45 91 46 1 36 4 24 34 38 2 0 0 0 0 0 0 0 0 0 0 0 5 10 6 1 0 0 0 0 0 0 0 1 0 0 0
35 24 62 20 37 170 187 153 76 41 10 0 0 0 0 0 0 0 0 0 0 0 0 0 0 0 0 0 0 1 5 6 2 1 1 1 0 1 1 1 1 1 2 4
43 55 83 71 136 107 163 91 11 3 0 0 0 0 0 0 0 0 0 0 0 0 0 0 0 0 1 2 0 1 2 4 3 2 3 1 1 1 1 1 0 1 0 1
57 134 111 110 74 200 45 2 0 1 0 0 0 0 0 0 0 0 0 1 1 1 1 1 2 1 1 1 4 2 1 2 3 2 1 2 1 1 2 1 2 1 1 0
130 89 75 87 136 153 1 4 0 3 1 0 0 0 0 0 0 1 3 3 3 4 4 3 4 2 2 3 4 6 1 0 1 2 3 3 4 10 2 4 6 11 10 9
CIN
-0 -0 -0 -0 -0 -0 -0 -0 -0 -0 -0 -0 -0 -0 -0 -0 -0 -0 -0 -5 -5 -16 -38 -120 -0 -0 -232 -169 -192 -0 -0 -0 -0 -0 -0 -0 -0 -0 -5 -8 -17 -0 -22 -1
-0 -0 -0 -0 -0 -0 -0 -0 -0 -0 -0 -0 -0 -0 -0 -0 -0 -0 -0 -0 -0 -26 -38 -122 -0 -270 -217 -192 -0 -0 -0 -0 -0 -1 -3 -0 -0 -0 -4 -7 -28 -7 -9 -1
-0 -0 -0 -0 -0 -0 -0 -0 -0 -0 -0 -0 -0 -0 -0 -0 -0 -0 -0 -0 -0 -3 -21 -92 -0 -0 -262 -210 -0 -0 -0 -0 -0 -0 -1 -1 -2 -1 -1 -4 -42 -55 -37 -0
-0 -0 -0 -0 -1 -0 -0 -0 -0 -0 -0 -0 -0 -0 -0 -0 -0 -0 -0 -0 -0 -3 -31 -46 -156 -263 -282 -302 -132 -213 -0 -0 -0 -0 -0 -0 -0 -0 -0 -0 -2 -64 -86 -6
-0 -1 -0 -0 -0 -1 -0 -0 -1 -0 -0 -0 -0 -0 -0 -0 -0 -0 -0 -0 -1 -0 -16 -31 -104 -173 -263 -294 -353 -0 -0 -0 -0 -0 -0 -0 -0 -0 -0 -0 -0 -5 -36 -13
-0 -0 -1 -0 -0 -0 -0 -0 -0 -0 -0 -0 -0 -0 -0 -0 -0 -0 -0 -0 -0 -0 -1 -26 -74 -151 -236 -311 -319 -356 -0 -0 -0 -0 -0 -0 -1 -0 -2 -0 -1 -6 -3 -7
-0 -0 -0 -1 -0 -0 -1 -0 -0 -0 -0 -0 -0 -0 -0 -0 -0 -0 -0 -0 -0 -0 -0 -33 -70 -120 -209 -311 -339 -393 -0 -0 -0 -1 -0 -0 -0 -0 -0 -0 -1 -4 -7 -2
-0 -0 -0 -2 -1 -0 -0 -0 -0 -0 -0 -0 -0 -0 -6 -1 -0 -0 -0 -0 -0 -0 -6 -48 -57 -108 -180 -293 -336 -391 -0 -171 -0 -0 -0 -0 -1 -0 -0 -0 -0 -0 -0 -2
-1 -0 -0 -0 -1 -0 -0 -0 -0 -0 -0 -1 -0 -0 -4 -0 -0 -0 -0 -0 -0 -0 -0 -52 -53 -92 -145 -228 -335 -369 -0 -207 -0 -0 -0 -0 -0 -0 -0 -0 -0 -0 -2 -0
-0 -0 -1 -2 -0 -1 -0 -0 -0 -0 -0 -0 -0 -1 -11 -0 -0 -1 -0 -0 -0 -0 -0 -30 -52 -92 -119 -164 -242 -353 -114 -207 -430 -0 -0 -0 -0 -0 -1 -0 -0 -0 -4 -0
-0 -0 -1 -1 -0 -0 -0 -0 -0 -0 -0 -0 -0 -0 -0 -0 -1 -0 -0 -1 -1 -0 -5 -20 -41 -69 -110 -128 -186 -281 -380 -0 -333 -382 -0 -0 -0 -234 -83 -0 -63 -0 -0 -0
-0 -0 -0 -0 -1 -0 -0 -0 -1 -0 -5 -0 -0 -1 -0 -0 -0 -0 -0 -1 -1 -8 -2 -14 -30 -56 -87 -123 -170 -224 -303 -354 -356 -298 -320 -282 -231 -202 -181 -139 -104 -48 -79 -70
-7 -0 -0 -1 -9 -3 -0 -1 -0 -0 -0 -0 -0 -0 -0 -0 -0 -0 -5 -0 -1 -1 -10 -24 -31 -41 -59 -88 -119 -173 -241 -288 -335 -319 -283 -189 -153 -126 -134 -125 -116 -79 -61 -62
-0 -0 -0 -0 -1 -3 -1 -2 -2 -1 -0 -0 -0 -0 -14 -2 -0 -0 -0 -54 -18 -22 -12 -7 -13 -18 -23 -47 -79 -118 -167 -239 -277 -320 -300 -260 -220 -208 -167 -142 -121 -118 -101 -79
-0 -0 -3 -1 -0 -1 -4 -1 -0 -0 -2 -5 -1 -1 -0 -2 -1 -0 -19 -0 -29 -35 -48 -11 -5 -5 -14 -32 -53 -87 -122 -168 -229 -260 -302 -285 -224 -205 -193 -149 -148 -140 -125 -122
-0 -0 -0 -0 -3 -2 -0 -3 -0 -0 -0 -2 -1 -1 -2 -4 -0 -0 -3 -51 -1 -80 -120 -95 -108 -68 -47 -40 -31 -65 -92 -140 -178 -230 -229 -257 -254 -258 -238 -216 -183 -145 -144 -148
-0 -0 -0 -0 -0 -0 -4 -28 -9 -4 -0 -0 -0 -1 -19 -0 -0 -0 -0 -0 -102 -157 -0 -0 -0 -111 -166 -133 -131 -69 -49 -93 -144 -197 -238 -220 -220 -249 -261 -243 -234 -213 -186 -154
-1 -0 -0 -0 -0 -0 -4 -2 -8 -0 -1 -0 -4 -3 -0 -0 -0 -0 -5 -0 -0 -0 -0 -0 -0 -86 -206 -205 -185 -77 -125 -82 -94 -153 -195 -211 -212 -230 -241 -261 -289 -256 -221 -202
-0 -3 -0 -0 -0 -0 -0 -0 -13 -2 -0 -11 -15 -0 -0 -0 -0 -6 -10 -53 -0 -0 -0 -0 -0 -0 -44 -42 -40 -0 -0 -11 -89 -91 -133 -172 -190 -229 -212 -219 -245 -240 -210 -198
-0 -0 -0 -17 -0 -5 -1 -3 -43 -14 -0 -12 -0 -0 -0 -0 -26 -2 -9 -0 -0 -0 -0 -0 -0 -0 -0 -0 -0 -0 -273 -9 -0 -113 -87 -104 -136 -167 -175 -162 -143 -159 -169 -158
-0 -0 -0 -2 -4 -0 -1 -2 -4 -3 -4 -0 -7 -0 -0 -0 -0 -26 -0 -0 -0 -0 -0 -0 -0 -0 -0 -0 -0 -0 -32 -162 -158 -301 -175 -196 -116 -107 -131 -106 -129 -207 -96 -0
-0 -0 -0 -0 -0 -0 -3 -8 -0 -2 -8 -4 -7 -10 -34 -27 -11 -7 -0 -0 -0 -0 -0 -0 -0 -0 -0 -0 -0 -0 -0 -0 -0 -0 -0 -0 -0 -0 -0 -0 -0 -0 -0 -0
-0 -0 -0 -0 -0 -1 -0 -1 -2 -9 -26 -0 -0 -0 -0 -0 -0 -0 -0 -0 -0 -0 -0 -0 -0 -0 -0 -0 -0 -0 -0 -0 -0 -0 -0 -0 -0 -0 -0 -0 -0 -0 -0 -0
-9 -1 -2 -0 -7 -0 -0 -0 -10 -40 -0 -0 -0 -0 -0 -0 -0 -0 -0 -0 -0 -0 -0 -0 -0 -0 -0 -0 -0 -0 -0 -0 -0 -0 -0 -0 -0 -0 -0 -0 -0 -0 -0 -0
-4 -0 -0 -0 -1 -6 -18 -0 -0 -0 -0 -0 -0 -0 -0 -0 -0 -0 -0 -0 -0 -0 -0 -0 -0 -0 -0 -0 -0 -0 -0 -0 -0 -0 -0 -0 -0 -0 -0 -0 -0 -0 -0 -0
-0 -0 -0 -0 -3 -0 -0 -0 -0 -0 -0 -0 -0 -0 -0 -0 -0 -0 -0 -0 -0 -0 -0 -0 -0 -0 -0 -0 -0 -0 -0 -0 -0 -0 -0 -0 -0 -0 -0 -0 -0 -0 -0 -0
Wind_Speed
16 16 21 22 20 21 24 19 16 12 12 11 15 19 15 16 15 12 13 11 12 13 12 12 11 11 12 15 13 12 11 13 9 8 9 8 8 9 8 6 8 15 13 14
18 22 20 21 19 21 27 24 15 15 4 5 15 19 18 15 17 9 13 12 11 12 13 13 13 13 13 13 14 12 11 14 11 9 7 9 9 8 8 4 4 9 15 15
19 16 23 18 18 23 24 23 19 18 9 8 15 19 19 17 16 13 9 12 10 13 15 16 16 15 13 14 14 15 13 14 12 11 7 7 8 7 7 6 5 6 7 12
18 28 8 17 22 20 23 18 19 17 16 13 11 14 15 19 22 16 18 15 13 11 14 16 17 16 16 14 13 15 16 17 15 17 14 16 14 14 14 12 8 7 10 12
14 11 18 20 18 20 23 16 15 16 18 17 17 11 14 14 14 15 14 17 17 13 14 16 18 17 16 15 14 14 16 17 17 15 14 14 15 11 9 12 14 13 13 14
21 25 17 15 18 19 15 15 16 11 15 16 16 15 13 11 14 15 4 9 14 14 13 15 17 17 16 15 14 13 14 15 17 16 16 18 18 16 11 13 13 12 11 11
21 23 24 13 15 23 19 12 10 12 13 15 16 15 15 10 0 6 8 7 9 9 13 15 18 17 17 18 16 15 17 17 16 15 17 18 19 18 19 18 14 14 13 10
17 15 23 15 15 16 19 18 10 12 11 13 18 8 7 8 2 1 2 4 6 13 11 15 19 18 18 19 19 18 18 18 17 16 17 15 17 11 14 16 13 12 13 14
12 20 12 20 13 16 17 22 21 18 11 8 6 10 14 6 8 7 9 9 9 13 15 16 18 19 19 19 20 19 19 19 19 18 16 16 16 16 15 18 15 13 15 13
15 17 15 17 14 21 21 10 18 13 11 11 9 13 4 7 5 3 2 3 4 9 13 16 17 19 18 17 17 18 18 19 20 20 17 15 17 18 15 14 17 18 17 18
16 10 6 11 18 19 18 18 12 15 14 9 13 9 7 1 4 4 6 8 6 0 5 10 15 17 17 16 17 17 18 18 19 19 19 19 16 20 16 17 19 20 20 19
16 7 12 15 19 22 22 20 18 10 5 12 9 5 3 10 8 9 4 6 9 5 5 10 13 15 17 17 17 18 18 18 18 18 19 20 20 20 19 20 19 19 20 20
13 10 10 15 10 8 14 19 19 17 15 13 8 8 12 8 5 10 12 12 10 10 8 1 8 11 14 16 17 17 18 19 18 18 19 17 18 19 22 22 20 19 19 20
6 12 14 13 13 10 13 10 10 11 9 14 14 13 9 10 4 6 11 12 11 11 9 3 5 7 11 13 15 17 18 18 18 19 19 20 20 20 18 18 18 19 19 19
4 6 13 9 3 9 7 15 14 13 15 11 13 12 12 8 4 6 9 13 12 10 13 15 10 6 8 10 12 15 16 18 18 19 21 21 18 18 19 18 19 18 19 18
5 4 7 9 4 4 5 8 10 11 13 13 14 12 11 2 3 3 8 12 13 14 14 14 16 16 12 9 10 13 15 17 18 20 20 18 18 19 20 20 19 18 19 20
9 8 5 3 7 2 5 13 11 11 13 13 13 6 9 4 4 5 6 11 13 14 15 15 13 13 13 13 11 12 12 14 18 19 19 19 18 19 20 19 19 20 20 18
12 9 8 4 6 4 1 2 12 14 9 6 2 4 4 6 7 9 12 11 13 15 16 16 15 15 15 15 14 13 11 12 16 18 19 19 18 19 18 19 21 19 17 19
15 12 6 5 7 8 3 5 6 6 3 2 3 4 6 7 9 5 13 10 11 14 15 15 17 18 18 18 17 16 14 14 15 18 19 18 16 18 18 20 20 17 16 16
16 13 9 5 8 5 6 7 3 4 8 8 9 7 7 7 6 11 10 12 13 14 13 15 16 18 20 23 22 19 15 14 13 16 16 17 17 17 17 15 14 13 13 13
14 12 14 11 8 7 4 5 2 11 5 8 8 8 8 7 10 14 15 14 14 14 15 16 15 13 15 19 20 18 17 14 15 14 12 7 10 12 13 12 11 10 5 10
14 12 10 13 12 15 5 4 9 8 9 8 9 10 10 10 11 12 12 13 13 15 16 17 14 14 14 16 17 17 17 17 13 12 13 13 14 11 10 10 9 10 10 11
10 13 7 10 9 7 8 12 9 7 8 10 10 10 10 10 10 11 11 13 13 14 13 14 13 13 14 15 14 15 16 14 11 11 12 13 13 13 12 12 10 8 8 7
8 12 3 7 8 9 10 11 8 9 9 9 9 9 9 10 9 10 10 11 12 13 14 13 12 14 15 16 14 13 16 13 11 11 12 12 13 13 13 10 8 8 6 6
4 10 9 7 5 10 10 9 9 9 10 9 8 8 8 9 9 11 11 13 13 14 14 14 14 13 15 16 16 13 14 15 10 10 10 11 11 13 16 15 11 10 13 10
4 0 3 1 10 7 7 7 9 8 10 10 9 9 9 10 9 10 10 11 11 12 13 12 13 15 16 17 17 17 16 13 10 11 10 10 9 9 11 12 15 31 28 28
Wind_Direction
228 222 227 226 220 252 269 263 262 245 242 210 237 252 241 248 201 224 222 227 215 208 201 176 184 183 183 169 177 174 170 156 150 163 149 154 148 147 153 182 199 167 161 175
264 229 232 237 242 238 250 259 259 268 227 219 262 262 248 244 261 228 232 211 221 206 193 177 184 189 192 181 174 168 170 163 162 170 173 155 150 155 154 156 231 200 169 184
233 246 226 246 232 238 239 244 247 259 259 207 259 266 259 248 249 243 229 256 224 210 199 184 189 195 191 190 186 177 168 165 158 167 156 144 137 142 162 177 209 210 222 209
251 233 155 229 237 238 243 232 251 261 257 257 265 267 261 228 231 212 224 221 230 208 202 189 189 194 190 194 180 187 174 176 177 174 173 172 173 172 186 186 180 205 224 219
245 224 239 225 234 226 254 258 257 237 254 260 259 257 269 264 239 230 245 228 202 213 197 195 189 193 190 183 179 196 173 180 186 182 177 179 184 189 175 188 189 189 206 221
270 289 282 248 232 258 266 222 256 239 246 243 243 254 267 256 202 218 232 233 212 188 204 197 186 188 184 180 179 186 177 185 180 181 181 185 191 188 183 187 191 194 201 202
250 268 267 235 225 235 232 207 211 216 221 236 236 232 235 271 71 273 258 233 176 200 200 195 186 189 186 180 182 182 185 183 181 187 185 192 192 192 195 187 191 192 204 208
229 233 244 222 246 224 212 214 221 220 226 228 215 227 260 194 238 245 275 238 248 168 196 198 192 190 192 186 185 186 186 189 182 185 190 189 199 202 196 195 195 202 204 209
287 231 218 222 207 263 219 219 238 270 246 275 156 218 271 204 229 221 221 232 224 218 191 204 197 191 194 190 190 190 185 192 193 188 193 196 196 200 198 198 196 203 208 211
252 269 258 193 205 229 254 235 219 225 239 236 232 203 235 150 201 137 263 12 332 286 211 190 198 191 196 193 189 194 195 194 192 195 194 196 199 204 201 201 200 206 213 214
264 268 227 258 203 207 230 233 238 234 225 240 234 250 241 201 65 42 37 13 339 354 230 190 200 191 195 194 195 196 204 200 195 194 196 199 201 208 203 211 207 208 208 208
222 259 246 242 222 222 204 226 231 226 241 238 249 251 164 72 28 341 288 360 24 49 338 194 197 192 194 200 198 200 202 209 204 195 199 200 199 205 207 211 213 212 211 214
353 224 245 204 260 206 239 218 215 234 235 219 249 231 207 97 51 327 343 358 355 354 53 358 191 198 200 205 206 209 206 211 209 206 204 204 206 206 207 209 210 212 212 214
291 268 257 237 244 242 204 206 214 241 230 235 225 253 262 265 277 329 352 330 321 325 325 210 186 202 208 213 215 214 214 211 212 210 209 209 209 211 214 213 211 212 213 216
286 298 322 283 294 280 222 206 223 231 236 250 247 258 263 269 39 351 322 324 326 340 344 346 350 235 211 218 225 221 222 216 214 217 214 216 210 214 216 217 215 215 215 217
200 283 289 240 192 268 225 254 245 232 240 244 242 245 234 34 315 336 355 345 355 352 349 345 339 333 340 311 228 219 224 219 213 221 224 218 213 210 215 215 215 217 218 216
289 240 208 289 293 269 261 233 230 246 250 250 249 292 49 250 332 17 15 15 1 359 354 346 338 329 322 319 323 291 240 216 217 219 227 223 217 215 214 213 215 217 217 217
263 257 254 225 192 242 171 346 215 230 217 225 76 80 358 346 328 314 67 17 2 358 353 354 351 339 331 322 313 308 289 260 220 225 224 225 220 220 217 212 216 218 215 217
218 256 251 229 234 273 308 225 218 204 206 93 30 33 10 349 313 76 56 25 10 1 0 357 349 346 350 348 342 324 300 283 255 227 228 225 223 222 221 219 216 214 213 215
203 224 245 212 247 229 293 103 338 268 181 54 25 14 345 341 287 112 26 5 2 5 7 358 360 6 6 349 336 316 296 286 267 268 248 230 228 224 225 223 222 216 215 218
189 194 223 230 239 246 143 117 295 218 84 40 10 5 347 322 5 343 4 1 5 2 8 1 12 23 14 355 340 334 350 359 346 357 339 285 255 234 227 226 227 221 119 81
184 186 202 228 232 245 53 216 231 48 80 42 35 27 5 346 350 351 351 8 6 358 5 5 16 14 18 11 359 360 353 340 352 17 27 33 33 38 51 68 63 70 92 92
201 205 180 200 218 87 76 73 76 56 60 46 44 34 15 9 12 359 4 4 7 6 11 6 8 18 12 15 13 360 351 350 6 39 47 49 49 47 50 61 61 64 59 66
169 209 194 205 186 158 117 97 64 62 60 47 34 25 17 358 1 353 6 7 7 7 10 6 10 23 16 10 11 11 357 3 18 31 45 51 55 49 50 42 52 73 60 79
46 197 202 222 147 112 96 71 33 48 49 39 38 32 28 1 7 355 12 7 4 6 5 12 13 25 25 19 6 7 35 4 17 40 46 55 63 62 63 57 47 58 49 55
212 337 240 39 35 43 85 58 25 35 39 32 26 22 37 23 23 17 28 20 17 19 19 22 21 30 27 27 16 9 27 42 17 34 41 49 46 71 76 71 68 57 66 66